#timestamp,LO_Frequency,Hit,StdDev 
1598236715.0,286046999.4,P
1598236715.9,286046999.4,P
1598236735.8,286047000.5,P
1598236755.6,286046999.8,N
1598236775.4,286047002.3,Y
1598236795.3,286047001.7,P
1598236815.1,286047000.1,N
1598236835.9,286047002.2,N
1598236855.7,286047002.0,N
1598236875.5,286047001.9,N
1598236895.4,286047001.4,N
1598236915.2,286047004.4,Y
1598236935.0,286047001.4,P
1598236935.9,286047001.4,P
1598236955.8,286047001.6,P
1598236975.6,286047001.4,Y
1598236995.5,286047000.4,P
1598237015.3,286047001.2,N
1598237035.1,286047001.2,N
1598237055.9,286046998.5,Y
1598237075.7,286046998.7,P
1598237095.6,286047001.2,N
1598237115.4,286046998.4,N
1598237135.2,286046999.2,N
1598237155.1,286046999.1,N
1598237156.0,286046999.1,N
1598237175.8,286046998.3,N
1598237195.6,286046999.6,N
1598237215.5,286046999.2,N
1598237235.3,286046998.2,N
1598237255.2,286046998.8,N
1598237275.9,286046999.1,N
1598237295.7,286046996.6,Y
1598237315.6,286046999.3,P
1598237335.4,286047000.7,P
1598237355.2,286047002.8,P
1598237375.1,286047000.4,N
1598237376.0,286047000.4,N
1598237395.8,286046999.8,N
1598237415.7,286047002.6,N
1598237435.5,286047002.6,N
1598237455.3,286047004.4,Y
1598237475.2,286047000.4,P
1598237495.0,286047000.0,N
1598237495.9,286047000.0,N
1598237515.8,286046999.5,N
1598237535.6,286046999.6,N
1598237555.4,286046999.1,N
1598237575.3,286046996.5,Y
1598237595.1,286046999.1,P
1598237615.8,286046997.5,P
1598237635.7,286046997.0,P
1598237655.5,286046999.6,N
1598237675.4,286046996.9,N
1598237695.2,286046996.6,N
1598237715.0,286046996.8,N
1598237715.9,286046996.8,N
1598237735.8,286046997.2,N
1598237755.6,286046999.4,N
1598237775.4,286046996.6,N
1598237795.3,286046997.3,N
1598237815.1,286046997.0,N
1598237835.9,286046999.1,N
1598237855.7,286046998.8,N
1598237875.5,286046998.3,N
1598237895.4,286046998.5,N
1598237915.2,286047000.7,N
1598237935.0,286046998.9,N
1598237935.9,286046998.9,N
1598237955.8,286046999.4,N
1598237975.6,286047000.5,N
1598237995.5,286046999.9,N
